sat.trackr.live / text

‹ back to catalog

RESOURCESAT-2

NORAD 37387 · 2011-015A

PAYLOAD ACTIVE UNKNOWN

§ Identity

Operator
Country
IND
Launch date
2011-04-20
Launch site
SRILR
Launch vehicle
Mass (kg)
RCS (m²)
5.59

Purposes: earth_obs

External: N2YO · Heavens-Above · Gunter

§ Orbital elements

Epoch: 2026-05-25T03:27:44.788032Z

Period
101.29 min
Inclination
98.7649°
Eccentricity
0.0010525
Mean motion
14.21606709 rev/d
Perigee alt
812.3 km
Apogee alt
827.5 km
Semi-major
7,198.1 km
B*
4.8603e-5
RAAN
212.7439°
Arg perigee
328.8661°
Mean anomaly
31.1891°
Rev number
78,290

§ Raw data

RESOURCESAT-21 37387U 11015A   26145.14426838  .00000062  00000+0  48603-4 0  99922 37387  98.7649 212.7439 0010525 328.8661  31.1891 14.21606709782903

JSON: /api/v1/satellites/37387 · /tle

For live sub-satellite position, see the globe view (requires WebGL).

§ Visibility from observer

Set your observer location to see the next 7 days of passes ≥ 10°. The values pass through the URL so the page stays shareable.

No JS? Fill the form by hand. The geolocation button needs JavaScript.

§ Radio — SatNOGS DB

ModeDescriptionDownlinkUplink
BPSK S-band telemetry 2.250 GHz

1 transmitter · refreshed weekly from db.satnogs.org